Date String (YYYY-MM-DD hh:mm:ss) UTC,Instrument flags,Ambient pressure (hPa),Sample flow (lpm),Bypass flow (lpm),Sample temperature (°C),Ambient temperature (°C),ASC tube jacket temperature (°C),LED temperature (°C),Box temperature (°C),Sample RH (%),Span deviation,Mass concentration (μg/m³),Mass concentration (μg/m³),Mass concentration (μg/m³)
DateTimeUTC,F1_M11,P_M11,Q1_M11,Q2_M11,T1_M11,T2_M11,T3_M11,T4_M11,T5_M11,U1_M11,ZSPAN_M11,X0_M11,X2_M11,X1_M11
2023-04-07 00:00:00,,0833.7,5.01,0.00,23.1,21.9,00.0,31.4,24.7,06.2,0000.0,0010.29,0003.95,0003.27
2023-04-07 00:01:00,,0833.7,5.00,0.00,23.1,21.9,00.0,31.4,24.7,06.3,0000.0,0010.40,0004.01,0003.26
2023-04-07 00:02:00,,0833.7,5.00,0.00,23.1,21.9,00.0,31.4,24.7,06.3,0000.0,0010.07,0004.03,0003.26
2023-04-07 00:03:00,,0833.7,5.01,0.00,23.1,21.9,00.0,31.4,24.8,06.3,0000.0,0010.25,0004.05,0003.26
2023-04-07 00:04:00,,0833.7,5.01,0.00,23.1,21.9,00.0,31.4,24.8,06.4,0000.0,0009.62,0003.99,0003.25
2023-04-07 00:05:00,,0833.7,4.99,0.00,23.2,21.9,00.0,31.4,24.8,06.5,0000.0,0009.52,0003.96,0003.25
2023-04-07 00:06:00,,0833.7,4.99,0.00,23.2,22.0,00.0,31.4,24.8,06.7,0000.0,0009.94,0003.96,0003.24
2023-04-07 00:07:00,,0833.7,4.99,0.00,23.2,22.0,00.0,31.4,24.8,06.6,0000.0,0010.18,0003.98,0003.23
2023-04-07 00:08:00,,0833.8,5.01,0.00,23.2,22.0,00.0,31.5,24.8,06.5,0000.0,0010.26,0004.00,0003.23
2023-04-07 00:09:00,,0833.8,5.02,0.00,23.2,22.0,00.0,31.5,24.8,06.3,0000.0,0010.11,0003.95,0003.22
2023-04-07 00:10:00,,0833.8,4.99,0.00,23.2,22.0,00.0,31.5,24.9,06.4,0000.0,0009.62,0003.92,0003.21
2023-04-07 00:11:00,,0833.8,4.99,0.00,23.2,22.0,00.0,31.5,24.9,06.6,0000.0,0009.12,0003.89,0003.20
2023-04-07 00:12:00,,0833.8,5.01,0.00,23.3,22.1,00.0,31.5,24.9,06.6,0000.0,0009.04,0003.85,0003.19
2023-04-07 00:13:00,,0833.8,5.01,0.00,23.3,22.1,00.0,31.5,24.9,06.4,0000.0,0008.59,0003.82,0003.19
2023-04-07 00:14:00,,0833.8,5.00,0.00,23.3,22.1,00.0,31.5,24.9,06.3,0000.0,0008.82,0003.80,0003.19
2023-04-07 00:15:00,,0833.8,4.99,0.00,23.3,22.1,00.0,31.5,24.9,06.5,0000.0,0008.88,0003.82,0003.21
2023-04-07 00:16:00,,0833.8,4.99,0.00,23.3,22.1,00.0,31.5,24.9,06.4,0000.0,0008.73,0003.79,0003.20
2023-04-07 00:17:00,,0833.9,5.00,0.00,23.3,22.1,00.0,31.6,24.9,06.5,0000.0,0008.06,0003.77,0003.19
2023-04-07 00:18:00,,0833.8,4.99,0.00,23.3,22.1,00.0,31.6,24.9,06.8,0000.0,0007.88,0003.78,0003.20
2023-04-07 00:19:00,,0833.9,5.00,0.00,23.3,22.1,00.0,31.6,24.9,06.8,0000.0,0007.82,0003.75,0003.21
2023-04-07 00:20:00,,0833.8,5.00,0.00,23.3,22.1,00.0,31.6,24.9,06.9,0000.0,0007.73,0003.73,0003.21
2023-04-07 00:21:00,,0833.8,5.00,0.00,23.3,22.1,00.0,31.6,24.9,06.7,0000.0,0007.81,0003.76,0003.22
2023-04-07 00:22:00,,0833.8,5.00,0.00,23.3,22.0,00.0,31.6,24.9,06.6,0000.0,0007.89,0003.79,0003.23
2023-04-07 00:23:00,,0833.8,5.00,0.00,23.4,22.0,00.0,31.6,24.9,06.7,0000.0,0007.75,0003.80,0003.24
2023-04-07 00:24:00,,0833.9,5.01,0.00,23.3,21.9,00.0,31.6,24.9,06.7,0000.0,0008.36,0003.80,0003.23
2023-04-07 00:25:00,,0833.8,5.00,0.00,23.3,21.9,00.0,31.6,24.9,06.4,0000.0,0009.22,0003.84,0003.22
2023-04-07 00:26:00,,0833.9,5.01,0.00,23.3,21.8,00.0,31.6,24.9,06.3,0000.0,0009.75,0003.88,0003.23
2023-04-07 00:27:00,,0833.9,5.00,0.00,23.3,21.8,00.0,31.6,24.9,06.4,0000.0,0010.22,0003.93,0003.23
2023-04-07 00:28:00,,0833.8,5.00,0.00,23.3,21.8,00.0,31.6,24.9,06.4,0000.0,0010.43,0004.00,0003.24
2023-04-07 00:29:00,,0833.9,5.00,0.00,23.3,21.8,00.0,31.6,24.8,06.5,0000.0,0010.89,0003.98,0003.24
2023-04-07 00:30:00,,0833.9,5.00,0.00,23.2,21.7,00.0,31.6,24.8,06.8,0000.0,0010.94,0003.97,0003.25
2023-04-07 00:31:00,,0833.9,4.99,0.00,23.2,21.7,00.0,31.6,24.8,06.5,0000.0,0011.08,0004.01,0003.27
2023-04-07 00:32:00,,0833.9,5.00,0.00,23.2,21.7,00.0,31.6,24.8,06.6,0000.0,0011.13,0004.01,0003.28
2023-04-07 00:33:00,,0834.0,5.00,0.00,23.2,21.7,00.0,31.6,24.8,06.6,0000.0,0011.26,0004.00,0003.28
2023-04-07 00:34:00,,0834.0,5.00,0.00,23.2,21.7,00.0,31.6,24.8,06.7,0000.0,0011.22,0003.99,0003.27
2023-04-07 00:35:00,,0834.0,5.00,0.00,23.2,21.7,00.0,31.6,24.8,06.6,0000.0,0010.82,0004.01,0003.29
2023-04-07 00:36:00,,0834.0,5.00,0.00,23.2,21.7,00.0,31.6,24.8,06.6,0000.0,0010.22,0004.01,0003.29
2023-04-07 00:37:00,,0834.0,4.99,0.00,23.2,21.7,00.0,31.6,24.7,06.6,0000.0,0010.15,0004.02,0003.29
2023-04-07 00:38:00,,0834.0,4.99,0.00,23.2,21.6,00.0,31.6,24.8,06.9,0000.0,0009.88,0004.01,0003.30
2023-04-07 00:39:00,,0834.0,5.00,0.00,23.2,21.7,00.0,31.6,24.7,07.0,0000.0,0009.77,0003.98,0003.30
2023-04-07 00:40:00,,0834.0,5.01,0.00,23.2,21.7,00.0,31.6,24.8,07.2,0000.0,0009.38,0004.02,0003.30
2023-04-07 00:41:00,,0834.0,5.01,0.00,23.2,21.8,00.0,31.6,24.8,07.2,0000.0,0009.35,0004.05,0003.30
2023-04-07 00:42:00,,0834.0,5.00,0.00,23.2,21.8,00.0,31.6,24.8,07.1,0000.0,0009.42,0004.06,0003.30
2023-04-07 00:43:00,,0834.0,5.00,0.00,23.3,21.8,00.0,31.6,24.8,06.8,0000.0,0009.59,0004.10,0003.29
2023-04-07 00:44:00,,0834.0,4.99,0.00,23.3,21.9,00.0,31.6,24.8,06.9,0000.0,0010.40,0004.14,0003.29
2023-04-07 00:45:00,,0834.0,4.99,0.00,23.3,21.9,00.0,31.6,24.8,07.0,0000.0,0011.15,0004.16,0003.29
2023-04-07 00:46:00,,0834.0,5.00,0.00,23.3,21.9,00.0,31.6,24.8,06.9,0000.0,0011.32,0004.17,0003.29
2023-04-07 00:47:00,,0834.0,5.00,0.00,23.3,21.9,00.0,31.6,24.9,06.6,0000.0,0011.55,0004.20,0003.30
2023-04-07 00:48:00,,0834.1,5.01,0.00,23.3,22.0,00.0,31.6,24.9,06.7,0000.0,0011.46,0004.19,0003.30
2023-04-07 00:49:00,,0834.0,5.01,0.00,23.3,22.0,00.0,31.6,24.9,06.9,0000.0,0012.02,0004.22,0003.31
2023-04-07 00:50:00,,0834.0,5.01,0.00,23.3,22.0,00.0,31.6,24.9,06.8,0000.0,0012.12,0004.24,0003.32
2023-04-07 00:51:00,,0834.1,4.99,0.00,23.3,22.0,00.0,31.6,24.9,07.1,0000.0,0012.50,0004.22,0003.31
2023-04-07 00:52:00,,0834.2,5.00,0.00,23.4,22.0,00.0,31.7,24.9,07.2,0000.0,0012.94,0004.22,0003.30
2023-04-07 00:53:00,,0834.1,4.99,0.00,23.4,22.1,00.0,31.7,25.0,07.0,0000.0,0013.11,0004.20,0003.28
2023-04-07 00:54:00,,0834.1,5.01,0.00,23.4,22.1,00.0,31.7,25.0,06.9,0000.0,0013.26,0004.18,0003.28
2023-04-07 00:55:00,,0834.1,5.01,0.00,23.4,22.1,00.0,31.7,25.0,06.7,0000.0,0013.67,0004.17,0003.28
2023-04-07 00:56:00,,0834.1,4.99,0.00,23.4,22.2,00.0,31.7,25.0,06.6,0000.0,0013.24,0004.18,0003.28
2023-04-07 00:57:00,,0834.1,5.00,0.00,23.4,22.2,00.0,31.7,25.0,06.7,0000.0,0013.21,0004.18,0003.28
2023-04-07 00:58:00,,0834.1,5.01,0.00,23.4,22.2,00.0,31.7,25.0,06.7,0000.0,0012.52,0004.18,0003.28
2023-04-07 00:59:00,,0834.1,5.00,0.00,23.5,22.2,00.0,31.7,25.0,06.8,0000.0,0012.05,0004.20,0003.28
